Regional Weather Roundup
Issued by NWS Charleston, SC

Current Version | Previous Version | Graphics & Text | Print | Product List | Glossary On
Versions: 1 2 3 4 5 6 7 8 9 10 11 12 13 14 15 16 17 18 19 20 21 22 23 24 25 26 27 28 29 30 31 32 33 34 35 36 37 38 39 40 41 42 43 44 45 46 47 48 49 50
084
ASUS42 KCHS 242027
RWRCHS

REGIONAL WEATHER ROUNDUP
NATIONAL WEATHER SERVICE CHARLESTON SC
300 PM EST FRI NOV 24 2017

NOTE: "FAIR" INDICATES FEW OR NO CLOUDS BELOW 12,000 FEET WITH NO
SIGNIFICANT WEATHER AND/OR OBSTRUCTIONS TO VISIBILITY.

NOT ALL STATIONS ARE QUALITY CONTROLLED. USE DATA WITH CAUTION...
ESPECIALLY DEWPOINT OBSERVATIONS.

SCZ027-030-031-034>040-042>050-242100-
...SOUTHEAST SOUTH CAROLINA...

CITY           SKY/WX    TMP DP  RH WIND       PRES   REMARKS
N CHARLESTON   MOSUNNY   62  37  39 N12       29.92S
WATERFRONT PRK   N/A     60  37  42 N10       29.76F
JOHNS ISLAND     N/A     63  39  42 NW8       29.91S
PINOPOLIS        N/A     57  39  51 N8        29.85S
MONCKS CORNER  FAIR      61  30  31 N7        29.93S
SUMMERVILLE    FAIR      61  34  36 N7        29.93F
BEAUFORT MCAS  SUNNY     66  35  31 N13       29.92F
BEAUFORT ARPT  FAIR      63  34  34 N13       29.92R HAZE
HILTON HEAD IS MOSUNNY   61  36  39 N10       29.92S
WALTERBORO     CLEAR     61  32  33 N9        29.94S
ALLENDALE      FAIR      63  34  34 CALM      29.93F

...SOUTHERN MIDLANDS AND PEE DEE...

CITY           SKY/WX    TMP DP  RH WIND       PRES   REMARKS
GEORGETOWN     FAIR      59  32  36 N7        29.92F
KINGSTREE      FAIR      61  30  31 N6        29.94S
ORANGEBURG     SUNNY     62  34  35 VRB6      29.94F
BARNWELL         N/A     64  34  32 N7        29.94F
AIKEN          FAIR      61  32  33 CALM      29.97F
MANNING        FAIR      61  32  33 MISG      29.94S
COLUMBIA       MOSUNNY   64  35  34 VRB3      29.94F
SUMTER         SUNNY     63  30  29 N9        29.92F
FLORENCE       SUNNY     62  28  27 N8        29.95F
MYRTLE BEACH   MOSUNNY   61  29  29 N12       29.93S
N MYRTLE BEACH CLOUDY    60  32  34 N7        29.92S

$$

GAZ063-065-086>088-099>101-113>116-118-119-134>141-150-242100-
...SOUTHEAST GEORGIA...

CITY           SKY/WX    TMP DP  RH WIND       PRES   REMARKS
SAVANNAH ARPT  MOSUNNY   66  39  37 N8        29.92F
HUNTER AAF     SUNNY     66  40  38 N5        29.89F
FORT STEWART   SUNNY     66  39  37 N7        29.90F
STATESBORO     SUNNY     65  30  27 N7        29.94S
SYLVANIA       CLEAR     65  39  37 N6        29.94F
CLAXTON        FAIR      67  39  36 NW5       29.94S

...CSRA...CENTRAL AND FAR SOUTHEAST GEORGIA...

CITY           SKY/WX    TMP DP  RH WIND       PRES   REMARKS
THOMSON        SUNNY     61  36  38 E6        29.99F
AUGUSTA-BUSH   SUNNY     65  35  33 N6        29.93F
AUGUSTA-DANIEL SUNNY     65  35  33 VRB6      29.95F
SWAINSBORO     FAIR      64  36  34 N3        29.95S
VIDALIA        SUNNY     68  39  34 N7        29.94F
EASTMAN        FAIR      67  11  11 CALM      29.97S
HAZLEHURST     FAIR      68  17  14 N5        29.93S
ALMA           SUNNY     68  38  33 N5        29.93S
WAYCROSS       SUNNY     67  37  33 NE7       29.93S
JESUP          FAIR      66  36  32 CALM      29.93S
BAXLEY         FAIR      64  36  34 N6        29.93S
BRUNSWICK      SUNNY     64  43  45 NW6       29.93R
SAINT SIMONS   SUNNY     66  43  43 N9        29.91S

$$

SCZ027-028-034-036>038-045-046-048>050-GAZ119-141-242100-
...LAKE AND SUPPLEMENTAL COASTAL OBSERVATIONS...

STATION/POSITION TIME  TEMP    WIND        PRES    WAVE   SWELL
                       AIR SEA DIR/SP/G            HT/PER HT/PER/DIR
                 (UTC) (F)     (DEG/KT/KT) (MB)    (FT/S) (FT/S/D)
WINYAH BAY       1945   59     360/  5     1013.0S
LAKE MURRAY      1950   61     200/  4/  5 1013.5F
ACE BASIN NERRS  1945   63     360/  3     1013.0S
FORT PULASKI     2000   62 60   10/  7/  9 1013.2
SAPELO ISLAND    2000   65      10/ 10     1013.0

$$

ANZ835-935-AMZ111-154-330-350-352-354-370-450-454-472-242100-
...C-MAN AND BUOY OBSERVATIONS...

STATION/POSITION TIME  TEMP    WIND        PRES    WAVE   SWELL
                       AIR SEA DIR/SP/G            HT/PER HT/PER/DIR
                 (UTC) (F)     (DEG/KT/KT) (MB)    (FT/S) (FT/S/D)
BUOY 41004       2010   62 73   20/ 19/ 23 1011.3
BUOY 41008       1950   59 66   20/ 17/ 21 1012.2R   6/ 7   3/100/10
FOLLY BEACH CMAN 2000   60     340/  9/ 13 1013.0F
CAPERS NEARSHORE 2008   56 61   10/ 10/ 14 1012.4S
FRIPP NEARSHORE  2008   60 61  360/  8/ 16 1012.7F


STATION/POSITION TIME  TEMP    WIND        PRES    WAVE   SWELL
                       AIR SEA DIR/SP/G            HT/PER HT/PER/DIR
                 (UTC) (F)     (DEG/KT/KT) (MB)    (FT/S) (FT/S/D)
5E ST. MARYS GA  2000      66                N/A     6/ 7   2/100/11
FRYING PAN BUOY  2010   62 71   30/ 21/ 25 1011.5
BUOY 41025       2010   63 73   20/ 19/ 23 1012.7
CAPE LOOKOUT NC  2000           20/ 16/ 20 1013.4F
BUOY 41002       1950   71 76   30/ 21/ 25 1008.1R  10/ 7
BUOY 41010       NOT AVBL
ST AUGUSTINE FL  2000   61 67  350/ 16/ 19 1012.7R


$$




USA.gov is the U.S. government's official web portal to all federal, state and local government web resources and services.